Content
SEND FEEDBACK

Daily
Averages
Monthly
Summary
Canada

QUEBEC CITY, QUEBEC


Home > North America > Canada > Quebec
Elevation: 72 meters     Latitude: 46 48N     Longitude: 071 23W

WEATHER
 
SELECT A DAY
Number of Records: 192,427;   Date Range: 6/30/96 - 8/19/14
 
SHARE

PRINT THIS DATA

[ ← Previous Day ]
WEATHER ALMANAC - 12 MAY, 2013
[ Next Day → ]
[ °F ]   °C
Weather ElementAverageHighLow
Temperature10.8 °C15 °C (12:00 pm)6 °C (11:00 pm)
Dewpoint2.8 °C10 °C (11:00 am) (7:00 pm)
Humidity72.8 %95 % (5:00 am)37 % (8:00 pm)
Wind Speed13.2 km/h40.7 km/h (2:00 pm)
Wind Gust53.8 km/h (2:00 pm)
Weather ElementAverage
Visibility39.4 km
Wind DirectionSSW (204.4 °)

Weather ElementTotal
Precipitation---
Heating Degree Days7.8 (Base 18.3)
Growing Degree Days0.5 (Base 10)
Averaged from 36 records on 12 May, 2013
WEATHER CONDITIONS BREAKOUT
WIND DIRECTION BREAKOUT
WEATHER BY HOUR - 12 MAY, 2013
[ °F ]   °C
Local TimeTemperatureDewpointHumidityBarometerVisibilityWind DirectionWind SpeedGust SpeedPrecipitationEventsConditions
1:00 AM11 °C9 °C88 %1004.7 hPa24.1 kmWSW (250°)13 km/hOvercast
2:00 AM10 °C9.4 °C93 %1004.4 hPaWSW (250°)5.6 km/h
2:00 AM10 °C9 °C94 %1005.1 hPa24.1 kmWest (260°)11.1 km/hOvercast
3:00 AM10 °C8 °C87 %1004.4 hPa24.1 kmWest (260°)9.3 km/hOvercast
4:00 AM9 °C8 °C93 %1004.4 hPa24.1 kmWest (260°)5.6 km/hOvercast
5:00 AM8.3 °C7.8 °C95 %1003.4 hPaWest (260°)1.9 km/h
5:00 AM9 °C8 °C93 %1004.1 hPa24.1 kmWSW (240°)5.6 km/hOvercast
6:00 AM9 °C8 °C93 %1004.1 hPa48.3 kmSW (230°)5.6 km/hOvercast
7:00 AM10 °C9 °C94 %1004.1 hPa48.3 kmSouth (170°)3.7 km/hOvercast
7:14 AM10 °C-17.8 °C48.3 kmESE (120°)5.6 km/hOvercast
7:43 AM10 °C-17.8 °C48.3 kmCalmMostly Cloudy
8:00 AM11.1 °C9.4 °C84 %1003 hPaSE (130°)3.7 km/h
8:00 AM11 °C9 °C88 %1003.4 hPa48.3 kmCalmMostly Cloudy
8:12 AM11 °C-17.8 °C48.3 kmSE (140°)9.3 km/hOvercast
9:00 AM11 °C8 °C82 %1003.7 hPa48.3 kmCalmOvercast
9:32 AM11 °C-17.8 °C24.1 kmCalmRainLight Rain
10:00 AM11 °C9 °C88 %1003 hPa24.1 kmCalmRainLight Rain
10:17 AM11 °C-17.8 °C32.2 kmNNW (330°)5.6 km/hOvercast
11:00 AM13 °C10 °C82 %1002.4 hPa40.2 kmWNW (290°)3.7 km/hMostly Cloudy
11:00 AM12.2 °C10 °C80 %1001.7 hPaNNW (330°)1.9 km/h
12:00 PM15 °C10 °C72 %1002 hPa40.2 kmSSW (200°)7.4 km/hMostly Cloudy
1:00 PM14 °C9 °C72 %1001.4 hPa48.3 kmWest (260°)9.3 km/hMostly Cloudy
2:00 PM14.4 °C8.9 °C59 %1000.3 hPaWSW (240°)18.5 km/h
2:00 PM13 °C8 °C72 %1001 hPa48.3 kmWSW (240°)40.7 km/h53.8 km/hMostly Cloudy
3:00 PM13 °C8 °C72 %1001.4 hPa48.3 kmWSW (240°)38.9 km/h50.1 km/hMostly Cloudy
4:00 PM13 °C8 °C72 %1001.4 hPa48.3 kmWSW (250°)20.4 km/hMostly Cloudy
5:00 PM13 °C4 °C54 %1001.4 hPa48.3 kmWSW (240°)38.9 km/hMostly Cloudy
5:00 PM12.8 °C4.4 °C45 %1000.7 hPaWSW (240°)18.5 km/h
6:00 PM11 °C1 °C50 %1002.4 hPa48.3 kmWSW (250°)31.5 km/h46.3 km/hMostly Cloudy
7:00 PM11 °C0 °C47 %1002.4 hPa48.3 kmSW (230°)35.2 km/h44.4 km/hMostly Cloudy
8:00 PM10.6 °C0.6 °C37 %1002.7 hPaWSW (240°)16.7 km/h
8:00 PM10 °C0 °C50 %1003 hPa48.3 kmWSW (240°)35.2 km/hScattered Clouds
9:00 PM9 °C-2 °C46 %1003.4 hPa48.3 kmWSW (240°)29.6 km/hScattered Clouds
10:00 PM8 °C-1 °C53 %1004.1 hPa24.1 kmWSW (250°)20.4 km/hPartly Cloudy
11:00 PM6.1 °C0.6 °C57 %1003.4 hPaWSW (240°)9.3 km/h
11:00 PM6 °C0 °C66 %1003.7 hPa24.1 kmWSW (240°)13 km/hPartly Cloudy
Hourly data recorded from CYQB, located 0 kilometers away from Quebec City, Quebec







STORIES FROM OUR PARTNERS